Location: Antioch
(38.0049°N, 121.8058°W)
Time: 02:40:19
(UTC+00:00)

Cosmos 1354 Rocket - Pass Details

Date: 23 May 2026
Orbit: 761 x 778 km, 74.0° (Epoch: 9 June)

Event Time Altitude Azimuth Distance (km) Brightness Sun altitude
Rises 03:48:04 0° 357° (N) 3,235 7.8 -6.2°
Reaches altitude 10° 03:51:14 10° 17° (NNE) 2,302 6.7 -6.7°
Maximum altitude 03:54:43 18° 59° (ENE) 1,819 5.7 -7.3°
Drops below altitude 10° 03:58:10 10° 101° (E) 2,290 5.9 -7.8°
Enters shadow 03:58:44 - 106° (ESE) 2,434 6.0 -7.9°
